TIANWANG 1B (TW-1B)
1 40927U 15051C   19057.49588986  .00007345  00000-0  12423-3 0  9997
2 40927  97.1540 103.4842 0010944  78.9908  26.6362 15.51814050192604
TIANWANG 1A (TW-1A)
1 40928U 15051D   19057.36718844  .00002577  00000-0  66370-4 0  9995
2 40928  97.1586  91.1264 0013157 116.4643 303.8034 15.40047934191881
LAPAN A2
1 40931U 15052B   19056.68665056  .00000721  00000-0  11499-4 0  9991
2 40931   5.9965 142.6125 0012437 354.2232   5.7770 14.76598093184531
LQSAT
1 40958U 15057A   19057.41743040  .00000007  00000-0  88410-5 0  9992
2 40958  97.9113 129.5794 0016726 240.3898 119.5635 14.73067753182274
CHUBUSAT 2
1 41338U 16012B   19057.50699847  .00000311  00000-0  17536-4 0  9990
2 41338  31.0029 137.6893 0013790  71.5094 288.7039 15.00098898166052
CHUBUSAT 3
1 41339U 16012C   19057.48973520  .00000307  00000-0  17158-4 0  9996
2 41339  31.0099 136.0407 0013647  79.2306 280.9878 15.00278110166047
OUFTI-1
1 41458U 16025C   19057.47231140  .00001147  00000-0  62654-4 0  9990
2 41458  98.1078 138.6283 0168005  14.9603 345.6501 15.05443302155698
E-STAR-2
1 41459U 16025D   19057.46317432  .00000960  00000-0  53482-4 0  9990
2 41459  98.1077 138.3441 0169204  16.1005 344.5501 15.05114483155663
AAUSAT 4
1 41460U 16025E   19057.37386113  .00001028  00000-0  56049-4 0  9992
2 41460  98.1025 139.2279 0159439   9.8945 350.5357 15.06837858155753
NUSAT 1
1 41557U 16033B   19057.53342643  .00001133  00000-0  45607-4 0  9991
2 41557  97.4217 145.7024 0013255 340.6612  19.4122 15.26899368152975
BEESAT 4
1 41619U 16040W   19057.16173901  .00001035  00000-0  47178-4 0  9992
2 41619  97.3824 121.4193 0012893  63.6643 296.5917 15.22797482136734
PRATHAM
1 41783U 16059A   19057.15932767  .00000002  00000-0  97124-5 0  9996
2 41783  98.0833 119.1404 0033910  20.1374 340.1157 14.62974326129095
ALSAT 1N
1 41789U 16059G   19057.38039835  .00000074  00000-0  23081-4 0  9990
2 41789  98.0848 121.1107 0028739  10.4672 349.7126 14.64218618129218
NAYIF 1
1 42017U 17008BX  19056.60159905  .00001133  00000-0  48054-4 0  9999
2 42017  97.4168 124.8099 0005820 193.1627 166.9459 15.25168435112686
LILACSAT-1
1 42725U 98067ME  19057.46473264  .00149784  20164-4  34663-3 0  9993
2 42725  51.6327 123.0283 0004009  43.4562  53.7837 15.96855689100693
MAX VALIER SAT
1 42778U 17036P   19056.63660671  .00000647  00000-0  31514-4 0  9996
2 42778  97.3701 116.7155 0010853 259.1655 100.8359 15.21781813 93042
